Regional Weather Roundup
Issued by NWS

Home | Current Version | Previous Version | Graphics & Text | Print | Product List | Glossary On
Versions: 1 2 3 4 5 6 7 8 9 10 11 12 13 14 15 16 17 18 19 20 21 22 23 24 25 26 27 28 29 30 31 32 33 34 35 36 37 38 39 40 41 42 43 44 45 46 47 48 49 50
000
ASUS44 KMEG 211300
RWRTN
TENNESSEE HOURLY STATE WEATHER ROUNDUP
NATIONAL WEATHER SERVICE MEMPHIS TN
700 AM CST SUN DEC 21 2014

TNZ002-004-019-021-049-052-054-088>092-211400-
WEST TENNESSEE

CITY           SKY/WX    TMP DP  RH WIND       PRES   REMARKS
MEMPHIS INTL   PTCLDY    33  28  81 E5        30.21R WCI  29
NWS MEMPHIS      N/A     28 N/A N/A MISG        N/A
JACKSON        CLEAR     28  24  85 CALM      30.22S
DYERSBURG      CLEAR     28  16  59 NE7       30.25S WCI  21
UNION CITY     CLEAR     25  25 100 CALM      30.22S
PARIS          CLEAR     25  21  86 NE3       30.23R
LEXINGTON      CLEAR     23  21  93 CALM      30.21R
SAVANNAH       CLEAR     23  23 100 CALM      30.22S
$$

TNZ008-025-027-028-033-062-065-066-211400-
NORTH MIDDLE TENNESSEE

CITY           SKY/WX    TMP DP  RH WIND       PRES   REMARKS
NASHVILLE      PTCLDY    26  23  88 CALM      30.26R FOG
CLARKSVILLE    CLEAR     23  21  92 CALM      30.25S FOG
SMYRNA         MOCLDY    21  19  93 CALM      30.27S
COOKEVILLE     CLEAR     19  18  93 CALM      30.22R
CROSSVILLE     CLEAR     27  21  78 CALM      30.21S
$$

TNZ061-075-076-078-094-096-097-211400-
SOUTH MIDDLE TENNESSEE

CITY           SKY/WX    TMP DP  RH WIND       PRES   REMARKS
FAYETTEVILLE   CLEAR     28  25  86 N14G24    30.20S WCI  17
TULLAHOMA      CLEAR     25  21  86 CALM      30.22R
WINCHESTER     CLEAR     21  21 100 CALM      30.22R
SHELBYVILLE    CLEAR     23  21  93 CALM      30.24R
$$

TNZ017-018-042-046-047-211400-
NORTHEAST TENNESSEE

CITY           SKY/WX    TMP DP  RH WIND       PRES   REMARKS
TRI CITIES     CLOUDY    37  36  96 CALM      30.24S FOG
ELIZABETHTON   CLOUDY    36  36 100 CALM      30.23S FOG
$$

TNZ012-013-036-069-073-074-211400-
CENTRAL EAST TENNESSEE

CITY           SKY/WX    TMP DP  RH WIND       PRES   REMARKS
KNOXVILLE      CLOUDY    38  31  76 N5        30.24R WCI  34
OAK RIDGE      PTCLDY    30  27  88 CALM      30.26R
GATLINBURG     CLOUDY    37  36  93 CALM      30.23S
$$

TNZ083-085-099-211400-
SOUTHEAST TENNESSEE

CITY           SKY/WX    TMP DP  RH WIND       PRES   REMARKS
CHATTANOOGA    CLOUDY    36  33  89 CALM      30.24S
$$

SKY/WX REPORTED AS FAIR MEANS FEW OR NO CLOUDS BELOW
12 THOUSAND FEET.



USA.gov is the U.S. government's official web portal to all federal, state and local government web resources and services.